Location: Wanzleben
(52.0609°N, 11.4408°E)
Time: 10:19:00
(UTC+00:00)

Cosmos 2263 Rocket - Pass Details

Date: 18 January 2021
Orbit: 825 x 847 km, 71.0° (Epoch: 24 February)

Event Time Altitude Azimuth Distance (km) Brightness Sun altitude
Rises 19:34:48 0° 267° (W) 3,407 6.3 -35.7°
Reaches altitude 10° 19:38:00 10° 284° (WNW) 2,471 5.4 -36.2°
Maximum altitude 19:42:00 19° 329° (NNW) 1,902 4.4 -36.8°
Enters shadow 19:42:46 19° 340° (NNW) 1,926 4.3 -36.9°
